Regional Weather Roundup
Issued by NWS

Home | Current Version | Previous Version | Graphics & Text | Print | Product List | Glossary On
Versions: 1 2 3 4 5 6 7 8 9 10 11 12 13 14 15 16 17 18 19 20 21 22 23 24 25 26 27 28 29 30 31 32 33 34 35 36 37 38 39 40 41 42 43 44 45 46 47 48 49 50
000
ASUS43 KFSD 250610
RWRSD

WEATHER ROUNDUP FOR SOUTH DAKOTA
NATIONAL WEATHER SERVICE SIOUX FALLS SD
1200 AM CST SUN FEB 25 2018

NOTE: "FAIR" INDICATES FEW OR NO CLOUDS BELOW 12,000 FEET WITH NO
SIGNIFICANT WEATHER AND/OR OBSTRUCTIONS TO VISIBILITY.


SDZ001>005-009-010-012>017-250700-
NORTHWEST AND NORTH CENTRAL SOUTH DAKOTA

CITY           SKY/WX    TMP DP  RH WIND       PRES   REMARKS
BUFFALO          N/A     16   7  67 W26       29.58S WCI  -3
FAITH            N/A     17   9  70 W20       29.65S WCI   1
MOBRIDGE       CLEAR     13   5  70 W10       29.59F WCI   0
$$

SDZ012>016-024>037-041>051-057-063-072>074-250700-
SOUTHWEST AND SOUTH CENTRAL SOUTH DAKOTA

CITY           SKY/WX    TMP DP  RH WIND       PRES   REMARKS
RAPID CTY ARPT PTCLDY    11   3  70 CALM      29.70S
PIERRE         CLEAR     17  10  74 W21G26    29.68S WCI   0
CUSTER         PTCLDY    17  -1  45 MISG      29.61F
ELLSWORTH AFB  PTCLDY    14   3  60 W8        29.68S WCI   3
PHILIP         CLEAR     12   7  80 W6        29.72F WCI   3
PINE RIDGE     CLEAR     16   8  71 SW6       29.76S WCI   7
SPEARFISH        N/A     27   7  43 W20G29    29.67S WCI  13
WINNER         FAIR      21  11  65 W16       29.72F WCI   7
$$

SDZ004>011-016>023-039-040-250700-
NORTHEAST SOUTH DAKOTA

CITY           SKY/WX    TMP DP  RH WIND       PRES   REMARKS
ABERDEEN       PTCLDY     0  -3  87 SW8       29.63R FOG     WCI -14
WATERTOWN      CLOUDY    14  13  95 W14       29.58R WCI  -1
BROOKINGS      CLOUDY    13   9  84 W17       29.63R WCI  -4
SISSETON         N/A     17  13  84 W20       29.56S WCI   1
$$

SDZ017-020-022-023-036>040-048>070-250700-
SOUTHEAST SOUTH DAKOTA

CITY           SKY/WX    TMP DP  RH WIND       PRES   REMARKS
SIOUX FALLS    CLOUDY    13  10  88 W15       29.68S WCI  -3
HURON          CLEAR      8   4  83 W8        29.68S WCI  -4
CHAMBERLAIN    CLEAR     17  11  78 SW13      29.71F WCI   4
MITCHELL       PTCLDY     9   4  80 W12       29.73S WCI  -6
YANKTON        CLEAR     15  10  80 W12       29.75R WCI   2
$$

ABBREVIATIONS USED IN REMARKS
   TC - TEMPERATURE IN CELSIUS
  WCI - WIND CHILL INDEX
   HX - HEAT INDEX
  VSB - VISIBILITY




USA.gov is the U.S. government's official web portal to all federal, state and local government web resources and services.